When you browse on this site, cookies collect data to enhance your experience and personalize the content and advertising you see.
Visit our Privacy Policy to learn more. By continuing to use the site, you agree to this use of cookies and data.
  • In Germany
  • List of Countries
  • For 7 days
  • Water Temperature
  • Weather Map
  • Weather Widgets
  • user-avatar
    Login

    Hourly Weather Igls

    Today, 4 June, Thursday

    Time Temperature Precipitation Wind Pressure Humidity
    00:00 +12°C° 0 mm 2 mps 675 mmHg 88%
    01:00 +12°C° 0 mm 2 mps 675 mmHg 88%
    02:00 +12°C° 0 mm 2 mps 675 mmHg 89%
    03:00 +10°C° 0 mm 2 mps 674 mmHg 90%
    04:00 +10°C° 0 mm 2 mps 674 mmHg 91%
    05:00 +13°C° 0 mm 2 mps 674 mmHg 87%
    06:00 +14°C° 0 mm 2 mps 674 mmHg 84%
    07:00 +15°C° 0 mm 1 mps 674 mmHg 80%
    08:00 +16°C° 0.1 mm 2 mps 674 mmHg 76%
    09:00 +17°C° 0.1 mm 2 mps 674 mmHg 73%
    10:00 +18°C° 0.1 mm 2 mps 674 mmHg 69%
    11:00 +18°C° 0.3 mm 2 mps 674 mmHg 70%
    12:00 +18°C° 0.3 mm 2 mps 673 mmHg 71%
    13:00 +18°C° 0.3 mm 2 mps 673 mmHg 72%
    14:00 +17°C° 0.8 mm 2 mps 673 mmHg 77%
    15:00 +16°C° 0.8 mm 2 mps 672 mmHg 82%
    16:00 +15°C° 0.8 mm 2 mps 672 mmHg 87%
    17:00 +14°C° 0.7 mm 2 mps 672 mmHg 89%
    18:00 +13°C° 0.7 mm 2 mps 672 mmHg 91%
    19:00 +13°C° 0.7 mm 1 mps 671 mmHg 92%
    20:00 +12°C° 1.3 mm 1 mps 671 mmHg 94%
    21:00 +12°C° 1.3 mm 1 mps 671 mmHg 96%
    22:00 +11°C° 1.3 mm 1 mps 671 mmHg 98%
    23:00 +11°C° 1.3 mm 1 mps 671 mmHg 97%

    Tomorrow, 5 June, Friday

    Time Temperature Precipitation Wind Pressure Humidity
    00:00 +11°C° 1.3 mm 1 mps 671 mmHg 97%
    01:00 +11°C° 1.3 mm 1 mps 670 mmHg 97%
    02:00 +10°C° 0.8 mm 1 mps 670 mmHg 97%
    03:00 +10°C° 0.8 mm 1 mps 671 mmHg 97%
    04:00 +10°C° 0.8 mm 1 mps 671 mmHg 96%
    05:00 +10°C° 0.8 mm 1 mps 671 mmHg 97%
    06:00 +10°C° 0.8 mm 1 mps 671 mmHg 97%
    07:00 +10°C° 0.8 mm 1 mps 672 mmHg 97%
    08:00 +10°C° 1.2 mm 1 mps 672 mmHg 97%
    09:00 +10°C° 1.2 mm 1 mps 672 mmHg 97%
    10:00 +10°C° 1.2 mm 1 mps 672 mmHg 97%
    11:00 +11°C° 0.3 mm 1 mps 673 mmHg 93%
    12:00 +12°C° 0.3 mm 1 mps 673 mmHg 89%
    13:00 +13°C° 0.3 mm 1 mps 673 mmHg 85%
    14:00 +14°C° 0.1 mm 1 mps 673 mmHg 80%
    15:00 +15°C° 0.1 mm 1 mps 673 mmHg 75%
    16:00 +16°C° 0.1 mm 1 mps 674 mmHg 69%
    17:00 +15°C° 0.1 mm 1 mps 674 mmHg 73%
    18:00 +14°C° 0.1 mm 1 mps 674 mmHg 77%
    19:00 +14°C° 0.1 mm 1 mps 674 mmHg 81%
    20:00 +12°C° 0 mm 1 mps 674 mmHg 84%
    21:00 +11°C° 0 mm 1 mps 675 mmHg 87%
    22:00 +9°C° 0 mm 1 mps 675 mmHg 90%
    23:00 +8°C° 0 mm 2 mps 675 mmHg 90%

    Day after tomorrow, 6 June, Saturday

    Time Temperature Precipitation Wind Pressure Humidity
    00:00 +8°C° 0 mm 2 mps 675 mmHg 90%
    01:00 +8°C° 0 mm 2 mps 675 mmHg 89%
    02:00 +8°C° 0 mm 2 mps 675 mmHg 90%
    03:00 +8°C° 0 mm 2 mps 675 mmHg 90%
    04:00 +8°C° 0 mm 2 mps 676 mmHg 90%
    05:00 +11°C° 0 mm 1 mps 676 mmHg 87%
    06:00 +12°C° 0 mm 1 mps 677 mmHg 83%
    07:00 +14°C° 0 mm 1 mps 677 mmHg 79%
    08:00 +15°C° 0.1 mm 1 mps 678 mmHg 76%
    09:00 +18°C° 0.1 mm 1 mps 678 mmHg 72%
    10:00 +19°C° 0.1 mm 1 mps 679 mmHg 68%
    11:00 +18°C° 0.4 mm 2 mps 678 mmHg 69%
    12:00 +19°C° 0.4 mm 2 mps 678 mmHg 70%
    13:00 +19°C° 0.4 mm 2 mps 678 mmHg 71%
    14:00 +18°C° 1 mm 2 mps 678 mmHg 77%
    15:00 +17°C° 1 mm 2 mps 678 mmHg 84%
    16:00 +16°C° 1 mm 2 mps 678 mmHg 91%
    17:00 +15°C° 1.2 mm 2 mps 678 mmHg 93%
    18:00 +14°C° 1.2 mm 1 mps 678 mmHg 95%
    19:00 +14°C° 1.2 mm 1 mps 678 mmHg 97%
    20:00 +13°C° 1.3 mm 1 mps 678 mmHg 98%
    21:00 +13°C° 1.3 mm 1 mps 678 mmHg 98%
    22:00 +13°C° 1.3 mm 1 mps 679 mmHg 99%
    23:00 +13°C° 0.6 mm 1 mps 679 mmHg 99%

    7 June, Sunday

    Time Temperature Precipitation Wind Pressure Humidity
    00:00 +13°C° 0.6 mm 1 mps 679 mmHg 98%
    01:00 +13°C° 0.6 mm 1 mps 678 mmHg 98%
    02:00 +12°C° 0.1 mm 1 mps 678 mmHg 98%
    03:00 +12°C° 0.1 mm 1 mps 678 mmHg 99%
    04:00 +12°C° 0.1 mm 1 mps 678 mmHg 99%
    05:00 +12°C° 0.5 mm 1 mps 678 mmHg 98%
    06:00 +13°C° 0.5 mm 1 mps 679 mmHg 98%
    07:00 +13°C° 0.5 mm 1 mps 679 mmHg 97%
    08:00 +13°C° 0.4 mm 1 mps 679 mmHg 97%
    09:00 +13°C° 0.4 mm 1 mps 679 mmHg 96%
    10:00 +14°C° 0.4 mm 1 mps 679 mmHg 96%
    11:00 +14°C° 0.5 mm 1 mps 679 mmHg 95%
    12:00 +14°C° 0.5 mm 2 mps 680 mmHg 94%
    13:00 +15°C° 0.5 mm 2 mps 680 mmHg 93%
    14:00 +14°C° 2 mm 2 mps 680 mmHg 94%
    15:00 +13°C° 2 mm 2 mps 680 mmHg 96%
    16:00 +12°C° 2 mm 2 mps 680 mmHg 97%
    17:00 +11°C° 1.3 mm 1 mps 680 mmHg 98%
    18:00 +11°C° 1.3 mm 1 mps 680 mmHg 98%
    19:00 +10°C° 1.3 mm 1 mps 680 mmHg 98%
    20:00 +10°C° 0.8 mm 1 mps 680 mmHg 98%
    21:00 +10°C° 0.8 mm 1 mps 680 mmHg 98%
    22:00 +10°C° 0.8 mm 1 mps 680 mmHg 98%
    23:00 +10°C° 0.7 mm 1 mps 680 mmHg 98%

    8 June, Monday

    Time Temperature Precipitation Wind Pressure Humidity
    00:00 +10°C° 0.7 mm 1 mps 680 mmHg 98%
    01:00 +10°C° 0.7 mm 1 mps 680 mmHg 98%
    02:00 +10°C° 1.5 mm 1 mps 680 mmHg 98%
    03:00 +10°C° 1.5 mm 1 mps 680 mmHg 99%
    04:00 +9°C° 1.5 mm 2 mps 680 mmHg 99%
    05:00 +9°C° 2.3 mm 1 mps 680 mmHg 99%
    06:00 +9°C° 2.3 mm 1 mps 680 mmHg 98%
    07:00 +9°C° 2.3 mm 1 mps 680 mmHg 98%
    08:00 +9°C° 0.8 mm 1 mps 680 mmHg 96%
    09:00 +10°C° 0.8 mm 1 mps 680 mmHg 94%
    10:00 +10°C° 0.8 mm 1 mps 681 mmHg 92%
    11:00 +11°C° 0.4 mm 1 mps 681 mmHg 91%
    12:00 +11°C° 0.4 mm 1 mps 681 mmHg 89%
    13:00 +12°C° 0.4 mm 1 mps 681 mmHg 88%
    14:00 +11°C° 0.8 mm 1 mps 680 mmHg 90%
    15:00 +11°C° 0.8 mm 1 mps 680 mmHg 93%
    16:00 +10°C° 0.8 mm 1 mps 680 mmHg 96%
    17:00 +10°C° 1 mm 1 mps 680 mmHg 96%
    18:00 +10°C° 1 mm 1 mps 680 mmHg 97%
    19:00 +10°C° 1 mm 1 mps 680 mmHg 97%
    20:00 +9°C° 0.9 mm 1 mps 681 mmHg 97%
    21:00 +9°C° 0.9 mm 1 mps 681 mmHg 97%
    22:00 +9°C° 0.9 mm 1 mps 682 mmHg 97%
    23:00 +8°C° 0.1 mm 1 mps 682 mmHg 96%

    9 June, Tuesday

    Time Temperature Precipitation Wind Pressure Humidity
    00:00 +8°C° 0.1 mm 1 mps 682 mmHg 95%
    01:00 +8°C° 0.1 mm 1 mps 681 mmHg 94%
    02:00 +7°C° 0.1 mm 1 mps 681 mmHg 94%
    03:00 +7°C° 0.1 mm 1 mps 681 mmHg 94%
    04:00 +7°C° 0.1 mm 1 mps 681 mmHg 94%
    05:00 +8°C° 0.2 mm 1 mps 682 mmHg 94%
    06:00 +9°C° 0.2 mm 1 mps 682 mmHg 95%
    07:00 +9°C° 0.2 mm 1 mps 683 mmHg 95%
    08:00 +10°C° 0.3 mm 1 mps 683 mmHg 94%
    09:00 +10°C° 0.3 mm 1 mps 683 mmHg 94%
    10:00 +11°C° 0.3 mm 1 mps 683 mmHg 93%
    11:00 +12°C° 0.3 mm 1 mps 683 mmHg 90%
    12:00 +13°C° 0.3 mm 1 mps 683 mmHg 86%
    13:00 +13°C° 0.3 mm 1 mps 683 mmHg 83%
    14:00 +13°C° 0.3 mm 1 mps 683 mmHg 84%
    15:00 +13°C° 0.3 mm 1 mps 683 mmHg 86%
    16:00 +13°C° 0.3 mm 1 mps 683 mmHg 87%
    17:00 +13°C° 0.2 mm 1 mps 683 mmHg 89%
    18:00 +12°C° 0.2 mm 1 mps 683 mmHg 90%
    19:00 +12°C° 0.2 mm 1 mps 683 mmHg 92%
    20:00 +11°C° 0.1 mm 1 mps 683 mmHg 93%
    21:00 +10°C° 0.1 mm 1 mps 684 mmHg 94%
    22:00 +8°C° 0.1 mm 1 mps 684 mmHg 95%
    23:00 +8°C° 0 mm 1 mps 684 mmHg 95%
    Show more